AC4ZO Weather Reports


Display with metric or nautical units.
time (UTC)temp
F
wind
direction
speed
MPH
gust
MPH
rain 1hr
in
rain 24hr
in
rain mn
in
humidity
%
barometer
mb
20200224210139 47 219 0.0 3.0 0.01 0.06 0.06 93 1016.3
20200224204621 47 202 0.0 7.0 0.01 0.06 0.06 94 1016.5
20200224203245 47 166 3.0 8.0 0.02 0.06 0.06 93 1016.4
20200224201555 47 159 0.0 6.0 0.03 0.06 0.06 93 1016.6
20200224200100 47 172 2.0 7.0 0.02 0.05 0.05 93 1016.7
20200224194601 47 106 1.0 6.0 0.03 0.05 0.05 92 1016.7
20200224193104 47 173 0.0 5.0 0.03 0.04 0.04 91 1017.3
20200224191531 48 193 0.0 0.0 0.02 0.03 0.03 90 1017.3
20200224190026 48 221 0.0 0.0 0.02 0.03 0.03 89 1017.4
20200224184515 48 169 0.0 0.0 0.02 0.02 0.02 86 1017.5
20200224183010 48 169 0.0 5.0 0.01 0.01 0.01 82 1017.5
20200224181643 49 223 0.0 0.0 0.01 0.01 0.01 80 1017.8
20200224180202 49 188 0.0 7.0 0.01 0.01 0.01 77 1018.3
20200224174623 50 224 1.0 6.0 0.00 0.00 0.00 73 1018.5
20200224173229 51 215 2.0 11.0 0.00 0.00 0.00 70 1018.8
20200224171618 52 208 0.0 7.0 0.00 0.00 0.00 71 1018.8
20200224170124 52 261 1.0 5.0 0.00 0.00 0.00 69 1018.7
20200224163138 52 219 0.0 1.0 0.00 0.00 0.00 63 1018.9
20200224161647 52 149 2.0 6.0 0.00 0.00 0.00 58 1019.1
20200224160201 52 166 3.0 8.0 0.00 0.00 0.00 57 1018.9
20200224153020 52 175 2.0 5.0 0.00 0.00 0.00 56 1019.1
20200224151519 51 163 1.0 6.0 0.00 0.00 0.00 56 1019.0
20200224150013 51 342 2.0 6.0 0.00 0.00 0.00 57 1019.0
20200224144512 50 231 3.0 7.0 0.00 0.00 0.00 59 1019.6
20200224143045 49 242 0.0 0.0 0.00 0.00 0.00 64 1019.4
20200224141519 49 128 0.0 1.0 0.00 0.00 0.00 64 1019.2
20200224140156 49 128 0.0 0.0 0.00 0.00 0.00 64 1019.1
20200224134544 49 71 0.0 2.0 0.00 0.00 0.00 64 1018.8
20200224133046 49 71 1.0 2.0 0.00 0.00 0.00 62 1018.8
20200224131600 49 180 1.0 3.0 0.00 0.00 0.00 58 1019.1
20200224130003 48 198 1.0 3.0 0.00 0.00 0.00 59 1019.1
20200224124657 48 205 1.0 8.0 0.00 0.00 0.00 58 1018.7
20200224123143 48 219 1.0 5.0 0.00 0.00 0.00 59 1018.8
20200224121633 48 195 2.0 5.0 0.00 0.00 0.00 58 1018.7
20200224120108 47 154 0.0 7.0 0.00 0.00 0.00 59 1018.7
20200224114658 47 216 0.0 0.0 0.00 0.00 0.00 60 1018.9
20200224113145 47 184 2.0 5.0 0.00 0.00 0.00 58 1018.6
20200224111704 47 155 0.0 3.0 0.00 0.00 0.00 59 1018.7
20200224110219 47 178 1.0 6.0 0.00 0.00 0.00 59 1018.7
20200224104602 47 166 2.0 5.0 0.00 0.00 0.00 59 1018.7
20200224103156 47 175 1.0 5.0 0.00 0.00 0.00 58 1018.5
20200224101712 47 186 1.0 5.0 0.00 0.00 0.00 58 1018.8
20200224100142 47 161 0.0 0.0 0.00 0.00 0.00 60 1018.7
20200224094647 47 196 0.0 0.0 0.00 0.00 0.00 59 1018.6
20200224093038 47 175 0.0 0.0 0.00 0.00 0.00 59 1018.6
20200224084659 47 180 1.0 4.0 0.00 0.00 0.00 58 1018.8
20200224083138 47 159 2.0 5.0 0.00 0.00 0.00 61 1018.8
20200224083006 47 158 2.0 5.0 0.00 0.00 0.00 61 1018.8
20200224081506 46 166 2.0 3.0 0.00 0.00 0.00 62 1018.8
20200224080014 46 178 0.0 0.0 0.00 0.00 0.00 64 1019.2
20200224074524 46 178 0.0 2.0 0.00 0.00 0.00 65 1019.1
20200224073008 46 178 1.0 2.0 0.00 0.00 0.00 64 1019.4
20200224071800 46 186 1.0 3.0 0.00 0.00 0.00 63 1019.5
20200224070057 46 196 1.0 3.0 0.00 0.00 0.00 63 1019.6
20200224064809 46 196 1.0 4.0 0.00 0.00 0.00 62 1019.7
20200224063111 46 163 0.0 0.0 0.00 0.00 0.00 60 1019.9
20200224061558 47 182 0.0 0.0 0.00 0.00 0.00 60 1020.1
20200224060110 47 163 0.0 0.0 0.00 0.00 0.00 58 1019.9
20200224054551 47 163 0.0 0.0 0.00 0.00 0.00 57 1019.9
20200224053045 47 142 0.0 0.0 0.00 0.00 0.00 57 1020.0
20200224051737 47 196 0.0 0.0 0.00 0.00 0.00 58 1020.1
20200224050209 47 184 0.0 0.0 0.00 0.00 0.00 59 1020.3
20200224044550 47 194 0.0 0.0 0.00 0.00 0.00 59 1020.6
20200224043021 46 159 0.0 0.0 0.00 0.00 0.00 60 1020.7
20200224041629 46 155 0.0 0.0 0.00 0.00 0.00 61 1020.8
20200224040053 46 155 0.0 2.0 0.00 0.00 0.00 60 1020.9
20200224034528 47 155 0.0 0.0 0.00 0.00 0.00 59 1021.0
20200224033104 47 155 0.0 0.0 0.00 0.00 0.00 61 1021.1
20200224031551 47 155 0.0 0.0 0.00 0.00 0.00 58 1021.3
20200224030042 47 160 0.0 0.0 0.00 0.00 0.00 59 1021.3
20200224024519 46 159 0.0 2.0 0.00 0.00 0.00 59 1021.4
20200224023014 47 196 0.0 3.0 0.00 0.00 0.00 57 1021.5
20200224021513 47 155 0.0 1.0 0.00 0.00 0.00 59 1021.5
20200224020020 47 155 0.0 0.0 0.00 0.00 0.00 56 1021.3
20200224013053 47 155 0.0 5.0 0.00 0.00 0.00 55 1021.2
20200224011605 48 146 1.0 3.0 0.00 0.00 0.00 54 1021.2
20200224010053 48 162 1.0 3.0 0.00 0.00 0.00 52 1021.3
20200224004706 49 165 0.0 3.0 0.00 0.00 0.00 51 1021.2
20200224003130 50 165 2.0 3.0 0.00 0.00 0.00 50 1021.1
20200224001637 50 159 2.0 5.0 0.00 0.00 0.00 49 1021.1
20200224000116 51 160 2.0 4.0 0.00 0.00 0.00 47 1020.7
20200223234556 51 187 1.0 3.0 0.00 0.00 0.00 47 1020.9
20200223233240 53 165 0.0 2.0 0.00 0.00 0.00 43 1020.8
20200223231600 55 176 1.0 3.0 0.00 0.00 0.00 39 1020.9
20200223230140 56 176 1.0 5.0 0.00 0.00 0.00 36 1020.8
20200223224618 57 177 2.0 6.0 0.00 0.00 0.00 33 1020.8
20200223223046 58 174 1.0 7.0 0.00 0.00 0.00 31 1020.7
20200223221550 59 238 2.0 7.0 0.00 0.00 0.00 30 1020.6
20200223220052 59 150 4.0 8.0 0.00 0.00 0.00 30 1020.7
20200223214533 60 159 3.0 8.0 0.00 0.00 0.00 29 1020.7
20200223213026 60 208 3.0 8.0 0.00 0.00 0.00 29 1020.8
20200223211523 61 198 3.0 12.0 0.00 0.00 0.00 29 1020.9